User: anonymous   Login
Location: Bouchavesnes-Bergen
(49.9859°N, 2.9203°E)
Time: 20:03:51
(UTC+00:00)
Language:

Envisat - Orbit

View from above orbital plane
View from above orbital plane
View from above satellite
View from above satellite

Ground track
Ground track

The orbit data is extracted from the following two-line orbital elements,

1 27386U 02009A   24151.50639708  .00000218  00000-0  85097-4 0  9992
2 27386  98.2812 113.2105 0001238  91.0388  19.7390 14.38580961165965
Epoch (UTC): 30 May 2024 12:09:12
Eccentricity: 0.0001238
inclination: 98.2812°
perigee height: 762 km
apogee height: 764 km
right ascension of ascending node: 113.2105°
argument of perigee: 91.0388°
revolutions per day: 14.38580961
mean anomaly at epoch: 19.7390°
orbit number at epoch: 16596

The dashed part of the orbit path shows where the satellite is in the earth's shadow,  

DLR